| time (UTC) | temp F | wind direction | speed MPH | gust MPH | rain 1hr in | rain 24hr in | rain mn in | humidity % | barometer mb |
| 20260904111542 | 77 | 0.0 | 0.0 | 0.00 | 0.00 | 0.00 | 91 | 1019.4 | |
| 20260904110521 | 77 | 0.0 | 0.0 | 0.00 | 0.00 | 0.00 | 91 | 1019.2 | |
| 20260904105521 | 77 | 0.0 | 0.0 | 0.00 | 0.00 | 0.00 | 91 | 1019.0 | |
| 20260904104521 | 77 | 0.0 | 0.0 | 0.00 | 0.00 | 0.00 | 91 | 1019.0 | |
| 20260904103542 | 77 | 0.0 | 0.0 | 0.00 | 0.00 | 0.00 | 90 | 1019.0 | |
| 20260904102522 | 77 | 0.0 | 0.0 | 0.00 | 0.00 | 0.00 | 90 | 1019.0 | |
| 20260904101520 | 77 | 0.0 | 0.0 | 0.00 | 0.00 | 0.00 | 90 | 1019.1 | |
| 20260904100521 | 77 | 0.0 | 0.0 | 0.00 | 0.00 | 0.00 | 90 | 1019.0 | |
| 20260904095521 | 78 | 0.0 | 0.0 | 0.00 | 0.00 | 0.00 | 90 | 1019.0 | |
| 20260904094521 | 78 | 0.0 | 0.0 | 0.00 | 0.00 | 0.00 | 89 | 1019.0 | |
| 20260904093521 | 78 | 0.0 | 0.0 | 0.00 | 0.00 | 0.00 | 89 | 1019.0 | |
| 20260904092552 | 78 | 0.0 | 0.0 | 0.00 | 0.00 | 0.00 | 89 | 1019.1 | |
| 20260904091521 | 78 | 0.0 | 0.0 | 0.00 | 0.00 | 0.00 | 88 | 1019.0 | |
| 20260904090521 | 78 | 0.0 | 0.0 | 0.00 | 0.00 | 0.00 | 88 | 1018.9 | |
| 20260904085521 | 79 | 0.0 | 0.0 | 0.00 | 0.00 | 0.00 | 87 | 1018.7 | |
| 20260904084521 | 79 | 0.0 | 0.0 | 0.00 | 0.00 | 0.00 | 87 | 1018.7 | |
| 20260904083520 | 79 | 0.0 | 0.0 | 0.00 | 0.00 | 0.00 | 87 | 1018.7 | |
| 20260904082521 | 79 | 0.0 | 0.0 | 0.00 | 0.00 | 0.00 | 86 | 1018.6 | |
| 20260904081521 | 79 | 0.0 | 0.0 | 0.00 | 0.00 | 0.00 | 86 | 1018.6 | |
| 20260904080520 | 79 | 0.0 | 0.0 | 0.00 | 0.00 | 0.00 | 86 | 1018.7 | |
| 20260904075521 | 80 | 0.0 | 0.0 | 0.00 | 0.00 | 0.00 | 85 | 1018.6 | |
| 20260904074520 | 80 | 0.0 | 2.0 | 0.00 | 0.00 | 0.00 | 85 | 1018.6 | |
| 20260904073520 | 80 | 0.0 | 0.0 | 0.00 | 0.00 | 0.00 | 85 | 1018.5 | |
| 20260904072520 | 80 | 0.0 | 1.0 | 0.00 | 0.00 | 0.00 | 84 | 1018.6 | |
| 20260904071520 | 80 | 0.0 | 1.0 | 0.00 | 0.00 | 0.00 | 84 | 1018.5 | |
| 20260904070639 | 81 | 0.0 | 0.0 | 0.00 | 0.00 | 0.00 | 83 | 1018.6 | |
| 20260904070022 | 81 | 0.0 | 1.0 | 0.00 | 0.00 | 0.00 | 83 | 1018.7 | |
| 20260904065022 | 81 | 0.0 | 0.0 | 0.00 | 0.00 | 0.00 | 82 | 1018.8 | |
| 20260904064041 | 81 | 0.0 | 1.0 | 0.00 | 0.00 | 0.00 | 82 | 1018.9 | |
| 20260904063041 | 81 | 0.0 | 0.0 | 0.00 | 0.00 | 0.00 | 82 | 1019.1 | |
| 20260904062042 | 82 | 0.0 | 0.0 | 0.00 | 0.00 | 0.00 | 82 | 1019.3 | |
| 20260904061041 | 82 | 0.0 | 0.0 | 0.00 | 0.00 | 0.00 | 81 | 1019.3 | |
| 20260904060021 | 82 | 0.0 | 1.0 | 0.00 | 0.00 | 0.00 | 81 | 1019.5 | |
| 20260904055022 | 82 | 0.0 | 1.0 | 0.00 | 0.00 | 0.00 | 81 | 1019.8 | |
| 20260904054022 | 82 | 0.0 | 0.0 | 0.00 | 0.00 | 0.00 | 81 | 1019.7 | |
| 20260904053041 | 83 | 0.0 | 0.0 | 0.00 | 0.00 | 0.00 | 80 | 1019.8 | |
| 20260904052022 | 83 | 0.0 | 4.0 | 0.00 | 0.00 | 0.00 | 80 | 1019.9 | |
| 20260904051043 | 83 | 0.0 | 1.0 | 0.00 | 0.00 | 0.00 | 80 | 1020.1 | |
| 20260904050021 | 83 | 0.0 | 1.0 | 0.00 | 0.00 | 0.00 | 80 | 1020.0 | |
| 20260904045042 | 84 | 0.0 | 0.0 | 0.00 | 0.00 | 0.00 | 79 | 1020.0 | |
| 20260904044021 | 84 | 0.0 | 1.0 | 0.00 | 0.00 | 0.00 | 79 | 1020.0 | |
| 20260904043021 | 84 | 0.0 | 0.0 | 0.00 | 0.00 | 0.00 | 79 | 1020.1 | |
| 20260904042023 | 84 | 0.0 | 1.0 | 0.00 | 0.00 | 0.00 | 79 | 1019.9 | |
| 20260904041021 | 84 | 0.0 | 1.0 | 0.00 | 0.00 | 0.00 | 80 | 1019.8 | |
| 20260904040141 | 85 | 0.0 | 1.0 | 0.00 | 0.00 | 0.00 | 80 | 1019.8 | |
| 20260904035101 | 85 | 0.0 | 1.0 | 0.00 | 0.00 | 0.00 | 80 | 1019.8 | |
| 20260904034413 | 85 | 0.0 | 0.0 | 0.00 | 0.00 | 0.00 | 79 | 1019.8 | |
| 20260904033021 | 86 | 0.0 | 1.0 | 0.00 | 0.00 | 0.00 | 78 | 1019.8 | |
| 20260904032021 | 86 | 0.0 | 0.0 | 0.00 | 0.00 | 0.00 | 77 | 1019.8 | |
| 20260904031021 | 86 | 0.0 | 0.0 | 0.00 | 0.00 | 0.00 | 77 | 1019.8 | |
| 20260904030021 | 86 | 0.0 | 0.0 | 0.00 | 0.00 | 0.00 | 77 | 1019.8 | |
| 20260904025021 | 86 | 0.0 | 1.0 | 0.00 | 0.00 | 0.00 | 76 | 1019.9 | |
| 20260904024021 | 86 | 0.0 | 0.0 | 0.00 | 0.00 | 0.00 | 76 | 1020.0 | |
| 20260904023021 | 87 | 0.0 | 0.0 | 0.00 | 0.00 | 0.00 | 76 | 1020.1 | |
| 20260904022041 | 87 | 0.0 | 0.0 | 0.00 | 0.00 | 0.00 | 75 | 1020.0 | |
| 20260904021148 | 87 | 0.0 | 0.0 | 0.00 | 0.00 | 0.00 | 74 | 1020.0 | |
| 20260904020021 | 88 | 0.0 | 0.0 | 0.00 | 0.00 | 0.00 | 74 | 1020.0 | |
| 20260904015021 | 88 | 0.0 | 0.0 | 0.00 | 0.00 | 0.00 | 72 | 1019.8 | |
| 20260904014021 | 89 | 0.0 | 0.0 | 0.00 | 0.00 | 0.00 | 71 | 1019.8 | |
| 20260904013042 | 89 | 0.0 | 0.0 | 0.00 | 0.00 | 0.00 | 70 | 1019.7 | |
| 20260904012021 | 89 | 0.0 | 0.0 | 0.00 | 0.00 | 0.00 | 69 | 1019.5 | |
| 20260904011021 | 90 | 0.0 | 1.0 | 0.00 | 0.00 | 0.00 | 68 | 1019.3 | |
| 20260904010021 | 90 | 0.0 | 0.0 | 0.00 | 0.00 | 0.00 | 68 | 1019.0 | |
| 20260904005021 | 90 | 0.0 | 1.0 | 0.00 | 0.00 | 0.00 | 68 | 1018.9 | |
| 20260904004021 | 90 | 0.0 | 1.0 | 0.00 | 0.00 | 0.00 | 67 | 1018.5 | |
| 20260904003021 | 90 | 0.0 | 0.0 | 0.00 | 0.00 | 0.00 | 66 | 1018.5 | |
| 20260904002021 | 91 | 0.0 | 0.0 | 0.00 | 0.00 | 0.00 | 66 | 1018.2 | |
| 20260904001041 | 91 | 0.0 | 0.0 | 0.00 | 0.00 | 0.00 | 65 | 1018.0 | |
| 20260904000128 | 92 | 0.0 | 1.0 | 0.00 | 0.00 | 0.00 | 65 | 1017.9 | |
| 20260903235021 | 92 | 0.0 | 0.0 | 0.00 | 0.00 | 0.00 | 62 | 1017.9 | |
| 20260903234020 | 93 | 0.0 | 1.0 | 0.00 | 0.00 | 0.00 | 61 | 1017.8 | |
| 20260903233020 | 93 | 0.0 | 0.0 | 0.00 | 0.00 | 0.00 | 61 | 1017.6 | |
| 20260903232021 | 94 | 0.0 | 1.0 | 0.00 | 0.00 | 0.00 | 59 | 1017.7 | |
| 20260903231020 | 94 | 0.0 | 0.0 | 0.00 | 0.00 | 0.00 | 58 | 1017.6 | |
| 20260903230021 | 95 | 0.0 | 0.0 | 0.00 | 0.00 | 0.00 | 56 | 1017.8 | |
| 20260903225021 | 95 | 0.0 | 1.0 | 0.00 | 0.00 | 0.00 | 55 | 1017.6 | |
| 20260903224021 | 96 | 0.0 | 0.0 | 0.00 | 0.00 | 0.00 | 55 | 1017.8 | |
| 20260903223021 | 96 | 0.0 | 2.0 | 0.00 | 0.00 | 0.00 | 54 | 1017.7 | |
| 20260903222020 | 96 | 0.0 | 2.0 | 0.00 | 0.00 | 0.00 | 54 | 1017.7 | |
| 20260903221020 | 97 | 0.0 | 4.0 | 0.00 | 0.00 | 0.00 | 52 | 1017.6 | |
| 20260903220020 | 97 | 0.0 | 1.0 | 0.00 | 0.00 | 0.00 | 51 | 1017.6 | |
| 20260903215021 | 98 | 0.0 | 1.0 | 0.00 | 0.00 | 0.00 | 52 | 1017.9 | |
| 20260903214020 | 98 | 0.0 | 1.0 | 0.00 | 0.00 | 0.00 | 51 | 1017.8 | |
| 20260903213021 | 98 | 0.0 | 1.0 | 0.00 | 0.00 | 0.00 | 52 | 1018.0 | |
| 20260903212020 | 98 | 0.0 | 2.0 | 0.00 | 0.00 | 0.00 | 50 | 1018.0 | |
| 20260903211020 | 98 | 0.0 | 3.0 | 0.00 | 0.00 | 0.00 | 49 | 1017.9 | |
| 20260903210021 | 99 | 0.0 | 1.0 | 0.00 | 0.00 | 0.00 | 49 | 1017.8 | |
| 20260903205020 | 99 | 0.0 | 2.0 | 0.00 | 0.00 | 0.00 | 48 | 1018.0 | |
| 20260903204020 | 101 | 0.0 | 3.0 | 0.00 | 0.00 | 0.00 | 48 | 1018.1 | |
| 20260903203021 | 101 | 0.0 | 3.0 | 0.00 | 0.00 | 0.00 | 46 | 1018.3 | |
| 20260903202021 | 101 | 0.0 | 3.0 | 0.00 | 0.00 | 0.00 | 46 | 1018.3 | |
| 20260903201022 | 101 | 0.0 | 3.0 | 0.00 | 0.00 | 0.00 | 47 | 1018.4 | |
| 20260903200020 | 101 | 0.0 | 3.0 | 0.00 | 0.00 | 0.00 | 46 | 1018.6 | |
| 20260903195020 | 101 | 0.0 | 3.0 | 0.00 | 0.00 | 0.00 | 47 | 1018.7 | |
| 20260903194040 | 101 | 0.0 | 2.0 | 0.00 | 0.00 | 0.00 | 49 | 1018.7 | |
| 20260903193022 | 102 | 0.0 | 0.0 | 0.00 | 0.00 | 0.00 | 48 | 1019.0 | |
| 20260903192020 | 101 | 0.0 | 2.0 | 0.00 | 0.00 | 0.00 | 49 | 1019.1 | |
| 20260903191022 | 100 | 0.0 | 0.0 | 0.00 | 0.00 | 0.00 | 53 | 1019.2 | |
| 20260903190022 | 100 | 0.0 | 1.0 | 0.00 | 0.00 | 0.00 | 53 | 1019.2 | |
| 20260903185020 | 98 | 0.0 | 2.0 | 0.00 | 0.00 | 0.00 | 54 | 1019.4 | |
| 20260903184022 | 97 | 0.0 | 1.0 | 0.00 | 0.00 | 0.00 | 55 | 1019.4 | |
| 20260903183022 | 97 | 0.0 | 0.0 | 0.00 | 0.00 | 0.00 | 56 | 1019.6 | |
| 20260903182040 | 96 | 0.0 | 1.0 | 0.00 | 0.00 | 0.00 | 60 | 1019.6 | |
| 20260903181020 | 96 | 0.0 | 0.0 | 0.00 | 0.00 | 0.00 | 61 | 1019.6 | |
| 20260903180023 | 94 | 0.0 | 0.0 | 0.00 | 0.00 | 0.00 | 58 | 1019.7 | |
| 20260903175022 | 94 | 0.0 | 0.0 | 0.00 | 0.00 | 0.00 | 61 | 1019.8 | |
| 20260903174522 | 94 | 0.0 | 0.0 | 0.00 | 0.00 | 0.00 | 63 | 1019.7 | |
| 20260903173522 | 94 | 0.0 | 1.0 | 0.00 | 0.00 | 0.00 | 59 | 1019.9 | |
| 20260903172523 | 95 | 0.0 | 0.0 | 0.00 | 0.00 | 0.00 | 60 | 1020.0 | |
| 20260903171522 | 95 | 0.0 | 1.0 | 0.00 | 0.00 | 0.00 | 60 | 1020.1 | |
| 20260903170522 | 96 | 0.0 | 0.0 | 0.00 | 0.00 | 0.00 | 57 | 1020.2 | |
| 20260903165522 | 98 | 0.0 | 4.0 | 0.00 | 0.00 | 0.00 | 52 | 1020.3 | |
| 20260903164522 | 99 | 0.0 | 2.0 | 0.00 | 0.00 | 0.00 | 54 | 1020.6 | |
| 20260903163522 | 99 | 0.0 | 2.0 | 0.00 | 0.00 | 0.00 | 53 | 1020.6 | |
| 20260903162522 | 98 | 0.0 | 1.0 | 0.00 | 0.00 | 0.00 | 54 | 1020.7 | |
| 20260903161522 | 98 | 0.0 | 1.0 | 0.00 | 0.00 | 0.00 | 56 | 1020.8 | |
| 20260903160542 | 99 | 0.0 | 2.0 | 0.00 | 0.00 | 0.00 | 56 | 1020.9 | |
| 20260903155524 | 99 | 0.0 | 2.0 | 0.00 | 0.00 | 0.00 | 55 | 1020.9 | |
| 20260903154543 | 100 | 0.0 | 1.0 | 0.00 | 0.00 | 0.00 | 57 | 1021.0 | |
| 20260903153542 | 99 | 0.0 | 1.0 | 0.00 | 0.00 | 0.00 | 59 | 1021.1 | |
| 20260903152522 | 97 | 0.0 | 1.0 | 0.00 | 0.00 | 0.00 | 63 | 1021.1 | |
| 20260903151522 | 96 | 0.0 | 1.0 | 0.00 | 0.00 | 0.00 | 63 | 1021.2 | |
| 20260903150542 | 96 | 0.0 | 1.0 | 0.00 | 0.00 | 0.00 | 62 | 1021.1 | |
| 20260903145520 | 96 | 0.0 | 2.0 | 0.00 | 0.00 | 0.00 | 61 | 1021.3 | |
| 20260903144522 | 95 | 0.0 | 1.0 | 0.00 | 0.00 | 0.00 | 63 | 1021.3 | |
| 20260903143524 | 96 | 0.0 | 1.0 | 0.00 | 0.00 | 0.00 | 65 | 1021.3 | |
| 20260903142522 | 94 | 0.0 | 2.0 | 0.00 | 0.00 | 0.00 | 67 | 1021.2 | |
| 20260903141522 | 93 | 0.0 | 2.0 | 0.00 | 0.00 | 0.00 | 67 | 1021.3 | |
| 20260903140522 | 92 | 0.0 | 1.0 | 0.00 | 0.00 | 0.00 | 70 | 1021.1 | |
| 20260903135522 | 91 | 0.0 | 0.0 | 0.00 | 0.00 | 0.00 | 70 | 1021.2 | |
| 20260903134522 | 90 | 0.0 | 2.0 | 0.00 | 0.00 | 0.00 | 71 | 1021.2 | |
| 20260903133522 | 90 | 0.0 | 1.0 | 0.00 | 0.00 | 0.00 | 71 | 1021.1 | |
| 20260903132521 | 88 | 0.0 | 1.0 | 0.00 | 0.00 | 0.00 | 76 | 1021.0 | |
| 20260903131522 | 87 | 0.0 | 1.0 | 0.00 | 0.00 | 0.00 | 78 | 1021.0 | |
| 20260903130522 | 85 | 0.0 | 2.0 | 0.00 | 0.00 | 0.00 | 81 | 1021.2 | |
| 20260903125522 | 84 | 0.0 | 1.0 | 0.00 | 0.00 | 0.00 | 83 | 1021.2 | |
| 20260903124521 | 82 | 0.0 | 1.0 | 0.00 | 0.00 | 0.00 | 86 | 1021.1 | |
| 20260903123522 | 80 | 0.0 | 2.0 | 0.00 | 0.00 | 0.00 | 90 | 1021.1 | |
| 20260903122522 | 79 | 0.0 | 1.0 | 0.00 | 0.00 | 0.00 | 91 | 1021.1 | |
| 20260903121522 | 78 | 0.0 | 0.0 | 0.00 | 0.00 | 0.00 | 91 | 1021.1 | |
| 20260903120522 | 78 | 0.0 | 0.0 | 0.00 | 0.00 | 0.00 | 91 | 1021.1 | |
| 20260903115522 | 77 | 0.0 | 0.0 | 0.00 | 0.00 | 0.00 | 91 | 1021.1 | |
| 20260903114541 | 77 | 0.0 | 0.0 | 0.00 | 0.00 | 0.00 | 92 | 1021.0 | |
| 20260903113521 | 77 | 0.0 | 0.0 | 0.00 | 0.00 | 0.00 | 93 | 1020.8 | |
| 20260903112701 | 76 | 0.0 | 0.0 | 0.00 | 0.00 | 0.00 | 94 | 1020.8 | |
| 20260903112021 | 76 | 0.0 | 0.0 | 0.00 | 0.00 | 0.00 | 94 | 1020.7 |